Temperature
23 25 25 25 26 26 24 22 22 22 22 22 22 22 22 23 22 22 22 22 22 22 21 21 21 21 21 21 20 20 19 19 19 19 18 18 18 18 17 17 17 17 17 16
24 25 25 25 25 26 25 24 23 23 22 22 22 23 22 22 22 22 22 22 21 21 21 21 21 21 20 20 20 20 19 19 19 19 18 18 18 17 17 17 17 16 16 16
22 24 24 23 24 24 24 24 23 22 22 21 21 21 21 21 22 21 21 22 21 21 21 21 21 21 20 20 20 20 19 19 19 18 18 18 17 17 17 17 16 16 16 16
20 22 23 22 23 24 24 23 23 22 21 21 21 22 22 22 22 21 21 22 22 21 21 21 20 20 20 20 19 19 19 18 18 18 18 17 17 17 17 16 16 16 16 16
19 21 22 23 23 24 23 22 22 21 21 21 22 21 20 21 22 22 22 22 21 21 21 20 20 20 20 19 19 19 18 18 18 18 17 17 17 17 16 16 16 16 16 16
19 21 21 22 23 24 23 21 21 21 21 21 21 19 19 21 22 22 21 21 21 21 20 20 20 19 19 19 19 18 18 18 18 17 17 17 17 17 16 16 16 16 15 15
19 20 20 21 22 23 21 20 21 21 21 21 20 20 20 21 21 21 21 21 21 20 20 19 19 19 18 18 18 18 18 18 17 17 17 17 17 16 16 16 16 15 15 15
17 19 19 20 21 20 19 20 20 20 21 21 21 20 20 20 20 21 20 20 20 19 19 19 18 18 18 18 18 17 17 17 17 17 17 16 16 16 16 15 15 15 15 15
17 17 19 20 20 20 20 20 20 20 20 21 20 20 20 20 20 20 19 19 19 19 19 18 18 18 18 18 17 17 17 17 17 17 16 16 16 16 15 15 15 15 15 15
16 17 18 19 20 20 21 20 20 20 20 20 20 19 19 19 19 19 19 19 19 18 18 18 18 18 18 17 17 17 17 17 16 16 16 16 16 15 15 15 15 15 15 14
16 17 18 19 19 20 20 20 20 20 20 20 19 19 19 18 18 18 18 18 18 18 18 18 17 17 17 17 17 16 16 16 16 16 16 15 15 15 15 15 15 15 14 14
16 17 17 18 19 19 19 19 19 19 19 19 19 18 18 18 18 18 17 17 17 17 17 17 17 17 17 16 16 16 16 16 16 16 15 15 15 15 15 15 15 15 15 14
19 19 19 19 19 19 19 19 19 18 18 18 18 18 18 17 17 17 17 17 17 17 17 16 16 16 16 16 16 16 15 15 15 15 15 15 15 15 14 14 14 14 14 14
19 19 18 18 18 18 18 18 18 18 18 18 18 17 17 17 17 17 16 16 16 16 16 16 16 16 16 15 15 15 15 15 15 15 15 15 14 14 14 14 14 14 14 14
18 18 18 18 18 18 18 18 18 17 17 17 17 17 17 16 16 16 16 16 16 16 15 15 15 15 15 15 15 15 15 14 14 14 14 14 14 14 14 14 14 14 14 14
18 18 18 18 17 17 17 17 17 16 16 16 16 16 16 16 16 15 15 15 15 15 15 15 15 15 14 14 14 14 14 14 14 14 14 14 14 13 13 13 13 13 13 13
17 17 17 17 17 17 17 17 16 16 16 16 15 15 15 15 15 15 15 15 14 14 14 14 14 14 14 14 14 14 14 14 14 14 13 13 13 13 13 13 13 13 13 13
16 16 16 16 16 16 16 16 15 15 15 15 15 15 15 15 15 14 14 14 14 14 14 14 14 14 14 14 14 13 13 13 13 13 13 13 13 13 13 13 13 13 13 13
16 15 16 16 16 16 15 15 15 15 15 14 14 14 14 14 14 14 14 14 14 13 13 13 13 13 13 13 13 13 13 13 13 13 13 13 13 13 13 13 13 13 12 12
15 15 15 15 15 15 15 15 15 14 14 14 14 14 14 14 14 14 13 13 13 13 13 13 13 13 13 13 13 13 13 13 13 13 13 13 13 12 12 12 12 12 12 12
14 14 14 14 14 14 14 14 14 14 14 14 14 14 14 13 13 13 13 13 13 13 13 13 13 13 13 13 12 12 12 12 12 12 12 12 12 12 12 12 12 12 12 12
13 13 13 13 13 13 13 13 13 13 13 13 13 13 13 13 13 13 13 13 12 12 13 12 12 12 12 12 12 12 12 12 12 12 12 12 12 12 12 12 12 12 12 12
13 13 13 13 13 13 13 13 13 13 13 13 13 13 12 12 12 12 12 12 12 12 12 12 12 12 12 12 12 12 12 12 12 12 12 12 12 11 11 11 11 11 11 11
13 13 12 12 12 13 13 12 12 12 12 12 12 12 12 12 12 12 12 12 12 12 12 12 12 12 12 12 11 11 11 11 11 11 11 11 11 11 11 11 11 11 11 10
12 12 12 12 12 12 12 12 12 12 12 12 12 12 12 12 12 11 11 11 11 11 11 11 11 11 11 11 11 11 11 11 11 11 11 11 11 11 11 11 10 10 10 10
12 12 12 12 12 12 12 12 12 12 12 11 11 11 11 11 11 11 11 11 11 11 11 11 11 11 11 11 11 11 11 11 11 10 10 10 10 10 10 10 10 10 10 9
12 12 12 12 12 12 12 12 12 11 11 11 11 11 11 11 11 11 11 10 10 10 10 10 10 10 10 10 11 11 11 10 10 10 10 10 10 10 10 10 9 9 9 9
Wind_Speed
5 4 1 2 4 2 2 6 7 7 7 9 8 7 7 8 7 8 8 9 9 8 7 7 5 5 6 7 7 7 7 6 6 5 5 4 4 4 3 3 3 3 2 2
2 2 3 4 5 2 1 3 5 5 5 5 5 5 6 8 9 9 8 8 8 8 8 8 7 6 5 5 6 7 6 5 5 5 4 4 4 3 3 3 3 3 3 2
2 3 4 4 4 1 0 1 5 5 6 5 6 7 8 8 8 8 8 9 9 7 7 6 6 6 6 5 5 6 6 5 5 5 5 4 4 4 4 4 3 3 3 3
1 2 2 6 3 3 3 1 1 4 5 6 7 6 5 6 8 8 7 8 8 7 6 4 4 5 5 4 4 5 5 5 5 5 5 4 3 4 4 3 3 4 3 4
3 3 3 4 4 1 2 2 1 6 7 6 6 7 3 2 6 8 8 8 7 7 7 6 5 5 5 4 3 3 3 4 5 5 5 5 5 5 4 4 3 4 4 4
3 3 4 4 6 1 5 1 2 6 8 7 6 4 3 3 6 7 6 6 6 6 6 6 5 5 5 4 4 3 3 4 4 5 5 5 6 5 4 4 4 4 3 4
3 3 3 5 6 4 3 5 2 3 6 6 4 4 5 4 5 6 6 6 6 7 6 4 4 5 4 3 4 4 4 3 3 4 4 5 5 4 5 4 4 4 4 3
2 2 4 6 4 2 4 1 2 3 4 6 7 5 4 5 5 6 6 5 5 5 5 4 5 6 5 4 4 2 3 2 2 3 4 3 4 4 4 4 4 4 4 4
4 4 5 2 2 2 4 4 3 4 5 7 7 5 5 5 5 4 4 4 4 5 4 4 4 5 6 5 4 3 3 3 3 2 2 2 3 4 3 4 4 5 4 5
2 1 1 2 4 3 4 5 4 5 5 6 6 4 4 4 5 4 3 3 3 3 3 3 3 4 5 4 4 4 3 3 2 2 2 2 2 3 4 4 4 5 5 5
1 1 2 4 2 2 3 4 5 5 5 4 5 4 4 4 3 3 3 2 3 3 3 4 3 3 3 3 4 3 3 2 2 2 2 2 2 3 4 5 6 7 6 6
4 5 3 2 2 2 3 3 3 4 3 3 3 4 3 3 2 3 3 2 2 2 3 2 2 2 2 2 4 4 2 2 2 2 2 2 2 2 4 4 6 8 9 7
4 3 3 2 2 3 2 2 3 4 4 3 2 3 4 3 2 2 2 3 3 3 3 3 2 2 2 2 3 3 3 3 3 3 3 3 3 3 3 4 4 5 7 8
1 3 2 1 1 1 2 2 3 3 2 3 3 3 4 3 2 1 2 3 3 2 2 2 2 2 3 2 1 2 3 3 3 3 3 3 4 3 3 3 3 3 4 5
2 2 2 1 1 2 2 4 4 2 2 3 3 4 4 3 2 2 2 1 2 2 1 1 1 3 2 2 2 3 3 3 3 3 3 3 3 3 3 4 3 3 2 3
1 2 3 3 2 2 3 4 3 1 1 2 2 2 2 3 2 1 1 1 2 2 2 2 3 3 2 2 2 2 3 4 3 2 2 2 2 2 3 3 3 3 3 3
2 1 1 2 2 2 3 2 2 2 1 1 1 1 1 2 2 0 1 2 2 3 3 4 4 3 2 2 2 2 3 3 3 2 3 3 3 3 3 3 3 3 4 4
2 1 2 3 4 3 3 3 2 2 2 1 1 1 1 2 2 2 2 2 1 2 2 3 3 2 2 2 2 2 2 3 3 3 3 3 3 3 3 3 4 4 3 3
4 4 4 4 3 3 3 2 1 1 1 1 1 1 2 2 3 2 1 0 1 3 4 3 2 1 2 3 2 2 3 3 3 3 3 3 3 3 3 3 3 3 3 2
5 4 4 4 4 3 2 1 1 0 1 1 0 0 1 2 2 2 1 2 3 4 3 3 2 2 3 3 3 2 3 3 3 3 2 2 3 3 3 3 3 3 3 3
4 4 4 4 3 3 1 1 1 1 1 1 1 2 2 2 2 1 1 2 4 3 2 3 2 2 3 3 2 2 2 3 3 3 3 3 3 3 2 3 3 3 3 3
2 2 2 2 2 2 2 2 1 1 1 1 1 2 1 1 1 1 2 3 4 3 2 2 2 3 3 3 2 2 2 2 3 2 2 3 3 2 2 2 2 3 3 3
0 0 1 1 1 1 2 2 2 1 1 1 2 2 2 2 2 2 3 3 2 3 2 3 3 3 3 2 2 2 2 2 2 2 2 2 2 2 2 2 2 3 2 2
2 2 2 2 2 2 3 4 4 3 2 2 2 2 2 1 2 2 2 3 3 3 2 3 4 4 3 2 2 2 2 2 2 2 2 1 1 1 2 2 1 1 1 2
3 3 3 2 2 2 2 3 4 3 2 1 2 2 1 1 2 2 1 2 2 2 1 2 3 3 2 2 1 2 2 2 2 1 1 1 1 1 1 1 1 1 1 1
2 2 2 2 2 2 2 1 2 2 1 1 2 2 1 1 1 1 1 1 1 1 1 1 1 1 1 1 1 1 2 1 1 1 0 1 1 1 1 1 1 1 1 1
3 3 2 3 3 2 1 1 1 2 2 1 2 2 1 1 1 1 1 0 0 0 1 1 1 1 1 1 1 1 0 0 1 1 1 1 1 0 0 1 0 0 0 0
Wind_Direction
208 220 178 277 284 277 166 181 176 203 202 214 194 179 166 153 145 137 135 138 146 149 144 140 138 140 149 153 156 159 159 170 181 183 180 177 176 183 184 181 177 167 167 181
342 349 35 339 314 306 226 178 177 171 213 214 167 139 136 140 137 138 143 148 151 145 142 147 154 157 150 149 157 153 160 178 184 179 172 176 182 182 183 194 187 175 178 186
277 311 32 324 291 220 98 178 165 186 206 156 131 148 153 149 139 141 144 148 151 151 151 160 166 158 152 157 151 146 160 176 181 182 180 185 185 181 193 200 189 195 200 189
164 57 217 241 247 140 111 50 121 138 152 149 153 151 140 143 141 145 143 137 141 142 140 148 148 147 147 140 142 156 169 182 185 178 180 185 186 198 205 199 197 204 208 202
134 180 253 300 311 307 122 337 67 125 129 131 116 88 54 137 147 152 148 142 143 146 142 136 132 136 139 136 144 151 174 180 183 179 182 194 205 209 208 195 205 211 207 201
134 154 220 262 293 286 99 313 290 142 141 142 114 119 226 189 141 134 131 135 140 134 122 126 135 134 134 154 160 185 202 195 189 182 187 201 208 209 205 197 204 210 216 214
150 186 252 283 317 32 112 230 277 135 135 134 140 180 184 166 142 133 133 136 132 129 131 146 143 132 135 163 197 207 204 189 190 193 200 210 211 209 203 198 198 206 215 225
123 132 259 305 13 97 205 194 80 80 97 109 110 111 122 132 133 127 129 131 136 139 145 154 150 143 153 193 215 201 181 187 210 219 219 214 204 215 205 197 198 213 220 235
171 198 247 311 112 136 120 101 86 88 94 109 112 120 126 125 126 130 138 142 147 151 154 161 167 163 170 199 193 181 186 210 233 241 231 210 200 208 203 201 211 219 217 227
55 27 38 53 58 58 88 103 99 99 99 102 109 117 128 128 130 135 138 138 129 135 168 192 193 187 193 200 190 176 192 217 230 228 248 246 226 205 202 211 218 225 226 228
102 259 7 4 22 95 86 91 91 90 97 108 115 132 139 135 140 143 138 148 157 173 196 211 208 208 209 193 167 170 197 215 225 229 230 245 245 233 217 219 212 212 221 216
215 231 184 250 304 84 92 99 104 106 100 97 124 135 121 121 141 143 139 148 158 174 184 197 195 209 231 196 170 172 199 225 233 235 233 231 235 277 277 250 247 232 225 217
202 206 166 166 32 47 69 91 111 115 127 132 123 133 129 133 139 141 162 179 187 192 190 187 191 222 248 223 178 177 203 223 230 226 226 231 233 237 265 292 290 262 240 231
175 110 81 39 8 51 75 81 104 101 104 125 121 115 120 126 129 150 219 212 194 183 187 183 182 226 243 208 188 215 228 239 232 226 227 227 233 238 231 231 257 282 282 253
350 120 164 152 52 48 66 82 85 72 56 58 94 104 107 111 125 180 221 194 150 155 207 213 220 254 240 191 211 235 241 249 239 232 231 230 230 235 239 234 235 249 276 299
1 55 85 84 71 62 76 85 97 95 81 73 84 106 130 142 148 161 196 157 145 200 229 229 243 254 242 219 247 256 249 257 251 225 224 230 230 229 235 237 240 240 240 239
81 23 64 89 92 75 75 92 122 135 119 129 153 150 119 118 108 54 285 245 211 220 229 230 245 255 233 216 225 252 259 262 265 250 238 236 231 221 222 225 229 234 238 227
128 126 129 127 121 98 76 85 102 114 135 168 126 106 140 157 171 209 248 255 276 297 273 248 247 248 251 251 247 252 250 246 247 247 247 246 241 232 226 226 231 235 246 229
67 63 64 69 79 93 93 99 102 109 116 137 132 171 215 213 207 219 224 215 247 275 278 277 254 206 244 265 272 260 251 249 254 257 249 246 253 247 234 231 229 227 224 216
58 53 59 55 52 58 47 28 32 63 94 106 108 206 245 251 230 231 227 239 246 246 256 265 252 245 252 262 271 256 252 245 241 250 253 248 249 251 242 232 225 221 220 219
47 49 49 50 36 24 6 337 317 293 271 241 246 256 250 253 238 207 197 266 279 268 255 247 246 261 260 268 277 266 257 254 249 242 239 246 246 242 245 241 229 221 219 220
39 46 32 24 19 350 332 332 305 289 284 289 278 268 260 273 271 259 244 241 258 265 252 248 254 257 259 271 276 273 263 254 246 236 236 238 234 232 240 248 247 238 228 224
356 30 344 332 293 286 316 315 300 302 298 280 259 251 249 253 242 224 267 269 258 259 255 257 255 259 276 281 280 273 262 251 242 238 236 234 235 226 228 241 244 248 244 229
340 336 314 307 327 349 335 321 321 316 298 291 278 262 253 269 296 277 237 245 254 252 251 258 262 272 273 271 267 266 267 263 255 244 238 240 250 245 233 236 233 247 247 239
308 308 315 331 332 306 286 305 322 326 328 324 316 316 307 224 236 257 257 243 248 259 286 280 271 275 272 277 263 245 242 243 235 218 224 237 253 261 261 232 208 211 214 221
300 296 286 280 280 280 280 293 294 298 316 321 315 310 304 298 270 258 261 269 289 267 275 280 285 293 313 308 280 252 241 245 239 235 225 238 275 280 287 283 261 244 254 256
332 314 306 315 313 308 297 285 290 294 269 229 263 279 269 276 279 275 271 280 286 247 260 274 278 264 273 289 285 290 341 50 164 164 159 188 215 226 249 265 285 291 277 276
Height
1474 1470 1470 1472 1472 1470 1477 1484 1492 1488 1486 1479 1473 1473 1475 1476 1478 1480 1481 1483 1486 1487 1490 1492 1495 1496 1497 1499 1500 1502 1504 1505 1506 1507 1508 1508 1509 1509 1510 1510 1510 1510 1510 1510
1474 1467 1468 1472 1469 1467 1469 1472 1476 1477 1479 1470 1470 1472 1474 1476 1477 1479 1481 1483 1485 1487 1488 1490 1492 1494 1496 1497 1498 1500 1502 1503 1505 1506 1506 1506 1507 1507 1507 1507 1508 1508 1508 1508
1485 1473 1474 1484 1473 1469 1469 1468 1470 1477 1474 1469 1472 1473 1474 1475 1476 1478 1479 1481 1484 1486 1488 1489 1490 1492 1494 1496 1497 1498 1499 1500 1502 1503 1503 1504 1504 1504 1505 1505 1505 1505 1505 1505
1487 1484 1496 1482 1464 1462 1465 1466 1465 1466 1467 1469 1470 1472 1474 1474 1475 1477 1479 1480 1483 1485 1487 1489 1490 1491 1492 1494 1495 1496 1497 1498 1499 1500 1500 1501 1501 1502 1502 1502 1502 1502 1502 1502
1491 1493 1487 1474 1464 1462 1467 1472 1466 1466 1468 1469 1469 1472 1476 1476 1476 1476 1478 1479 1482 1484 1485 1487 1488 1490 1491 1493 1494 1494 1495 1496 1496 1497 1497 1498 1498 1498 1499 1499 1499 1499 1499 1498
1488 1491 1494 1479 1463 1459 1464 1476 1467 1465 1466 1468 1469 1478 1478 1476 1476 1476 1478 1479 1481 1483 1484 1485 1486 1488 1489 1491 1491 1491 1492 1493 1494 1494 1495 1494 1495 1495 1495 1496 1495 1496 1496 1495
1486 1490 1484 1470 1462 1460 1479 1479 1468 1466 1465 1467 1469 1472 1473 1474 1475 1476 1478 1479 1480 1482 1483 1484 1485 1486 1488 1489 1489 1489 1490 1490 1491 1492 1492 1492 1492 1492 1492 1492 1492 1492 1492 1492
1488 1492 1489 1466 1464 1469 1472 1467 1467 1466 1466 1466 1467 1470 1473 1473 1474 1476 1477 1479 1480 1481 1482 1483 1484 1485 1486 1486 1487 1488 1488 1488 1488 1488 1488 1488 1488 1488 1488 1488 1488 1488 1488 1488
1480 1483 1472 1467 1466 1467 1466 1466 1467 1466 1466 1467 1468 1470 1472 1473 1474 1475 1477 1478 1479 1479 1480 1481 1482 1483 1483 1484 1484 1485 1485 1485 1485 1484 1484 1485 1485 1485 1484 1484 1484 1484 1484 1484
1476 1473 1469 1468 1468 1468 1467 1466 1467 1466 1467 1468 1469 1470 1471 1472 1472 1473 1475 1476 1477 1478 1478 1478 1479 1480 1481 1482 1482 1481 1481 1481 1481 1481 1481 1481 1481 1481 1481 1480 1480 1480 1480 1480
1477 1473 1470 1469 1468 1469 1468 1468 1467 1467 1468 1468 1469 1470 1471 1471 1472 1472 1474 1475 1475 1476 1476 1476 1477 1477 1478 1478 1478 1478 1478 1479 1478 1478 1478 1478 1478 1478 1477 1477 1477 1476 1476 1476
1475 1470 1470 1470 1468 1468 1468 1468 1467 1467 1467 1468 1469 1469 1470 1470 1471 1472 1472 1473 1474 1474 1474 1474 1474 1474 1474 1475 1474 1475 1475 1475 1475 1475 1475 1475 1474 1474 1473 1473 1473 1472 1472 1473
1468 1467 1467 1468 1467 1467 1468 1468 1468 1467 1467 1467 1468 1469 1469 1469 1470 1471 1471 1472 1472 1471 1471 1471 1471 1471 1472 1472 1471 1471 1471 1471 1472 1472 1472 1471 1470 1470 1469 1469 1469 1469 1469 1469
1466 1465 1466 1467 1467 1467 1467 1467 1467 1467 1467 1466 1466 1467 1467 1468 1468 1470 1470 1470 1469 1469 1469 1468 1468 1468 1469 1469 1468 1468 1468 1468 1468 1468 1468 1467 1467 1466 1466 1465 1465 1464 1465 1465
1465 1464 1464 1465 1466 1465 1465 1465 1465 1465 1465 1465 1465 1465 1466 1466 1467 1468 1468 1467 1467 1466 1466 1466 1465 1465 1466 1465 1465 1464 1465 1464 1464 1463 1463 1463 1463 1463 1463 1462 1461 1461 1461 1461
1464 1463 1463 1463 1463 1464 1464 1463 1464 1464 1464 1464 1464 1464 1464 1465 1465 1466 1466 1465 1464 1464 1464 1463 1463 1462 1462 1462 1462 1461 1461 1461 1460 1460 1459 1460 1459 1459 1459 1459 1458 1458 1457 1457
1462 1463 1462 1462 1462 1462 1462 1462 1461 1462 1463 1463 1463 1463 1463 1462 1463 1463 1463 1463 1463 1462 1461 1461 1461 1460 1459 1459 1459 1458 1458 1457 1457 1456 1456 1456 1455 1455 1455 1455 1455 1454 1454 1454
1462 1462 1462 1462 1461 1461 1461 1461 1461 1461 1462 1462 1461 1461 1460 1460 1459 1460 1460 1461 1460 1459 1459 1459 1458 1457 1457 1456 1455 1455 1454 1454 1454 1453 1453 1453 1452 1452 1452 1452 1451 1451 1451 1451
1461 1461 1461 1461 1461 1460 1459 1459 1459 1459 1459 1460 1459 1459 1458 1458 1457 1458 1458 1458 1457 1456 1456 1456 1455 1455 1454 1453 1453 1452 1451 1451 1450 1450 1450 1449 1449 1448 1448 1448 1447 1447 1447 1447
1460 1461 1460 1460 1460 1460 1459 1459 1458 1457 1457 1457 1457 1456 1456 1455 1455 1455 1455 1454 1454 1453 1453 1453 1452 1451 1451 1451 1450 1449 1448 1447 1447 1447 1446 1445 1445 1444 1444 1444 1443 1443 1443 1443
1460 1460 1459 1459 1458 1458 1458 1457 1457 1456 1455 1454 1454 1453 1453 1453 1453 1452 1451 1451 1450 1450 1450 1449 1449 1448 1447 1447 1447 1445 1444 1444 1443 1443 1442 1442 1441 1441 1441 1440 1440 1439 1439 1439
1460 1459 1458 1457 1457 1456 1456 1455 1455 1454 1453 1452 1451 1451 1450 1449 1449 1449 1448 1448 1447 1447 1446 1446 1445 1445 1444 1444 1443 1442 1441 1440 1440 1439 1439 1438 1438 1437 1437 1436 1436 1436 1435 1435
1459 1458 1457 1456 1455 1454 1454 1453 1452 1451 1450 1449 1448 1448 1447 1446 1446 1445 1444 1444 1444 1443 1443 1442 1441 1441 1441 1440 1439 1438 1438 1437 1436 1436 1435 1435 1434 1434 1433 1433 1433 1432 1432 1432
1457 1457 1456 1455 1453 1452 1451 1450 1449 1448 1447 1446 1446 1445 1444 1443 1442 1442 1441 1440 1440 1440 1439 1438 1438 1437 1437 1436 1435 1434 1434 1434 1433 1433 1432 1432 1431 1431 1430 1430 1429 1429 1429 1428
1456 1455 1454 1453 1452 1450 1449 1448 1446 1445 1444 1443 1443 1442 1441 1440 1439 1438 1438 1437 1437 1436 1435 1435 1434 1434 1433 1433 1432 1431 1431 1431 1430 1430 1429 1429 1428 1427 1427 1426 1426 1426 1426 1425
1455 1454 1452 1451 1450 1449 1447 1446 1445 1443 1442 1441 1439 1439 1438 1437 1436 1435 1435 1434 1433 1432 1432 1432 1431 1431 1430 1430 1429 1429 1428 1428 1428 1427 1426 1426 1426 1425 1424 1423 1423 1423 1422 1422
1453 1452 1451 1450 1448 1447 1446 1445 1443 1441 1440 1439 1437 1437 1436 1435 1434 1433 1432 1431 1430 1430 1429 1429 1429 1428 1428 1427 1427 1427 1426 1426 1425 1425 1424 1424 1423 1422 1421 1420 1420 1420 1419 1419